Regional Weather Roundup
Issued by NWS Cleveland, OH

Home | Current Version | Previous Version | Graphics & Text | Print | Product List | Glossary On
Versions: 1 2 3 4 5 6 7 8 9 10 11 12 13 14 15 16 17 18 19 20 21 22 23 24 25 26 27 28 29 30 31 32 33 34 35 36 37 38 39 40 41 42 43 44 45 46 47 48 49 50
993
ASUS41 KCLE 051810
RWRCLE
OHIO REGIONAL WEATHER ROUNDUP
NATIONAL WEATHER SERVICE WILMINGTON, OH
100 PM EST FRI FEB 05 2016

NOTE: "FAIR" INDICATES FEW OR NO CLOUDS BELOW 12,000 FEET WITH NO
SIGNIFICANT WEATHER AND/OR OBSTRUCTIONS TO VISIBILITY.

OHZ001>008-015>018-024>027-034-035-043-044-051900-
   NORTHWEST OHIO

CITY           SKY/WX    TMP DP  RH WIND       PRES   REMARKS
DEFIANCE       FAIR      38  23  55 S12       30.33F
FINDLAY        FAIR      38  20  48 S9        30.33F
TOLEDO EXPRESS FAIR      38  18  44 SW10      30.33F
TOLEDO EXEC    FAIR      38  20  48 SW14      30.35F
LIMA           FAIR      37  19  48 S12       30.33F
$$

OHZ009>014-019>023-028>033-038-089-051900-
   NORTHEAST OHIO

CITY           SKY/WX    TMP DP  RH WIND       PRES   REMARKS
CLE-HOPKINS    FAIR      32  18  56 SW3       30.38F
CLE-LAKEFRONT  FAIR      33  22  63 W6        30.36F WCI  28
CUY CO. ARPT   MOSUNNY   34  21  60 NW9       30.36F WCI  26
LORAIN-ELYRIA  FAIR      32  18  56 SW3       30.36F
ASHTABULA      FAIR      30  16  56 W5        30.34F WCI  25
AKRON-CANTON   FAIR      32  18  56 W7        30.34F WCI  26
WOOSTER        FAIR      33  19  56 NW10      30.35F WCI  25
MANSFIELD      FAIR      34  20  56 SW7       30.34F WCI  28
YOUNGSTOWN     PTSUNNY   32  18  56 CALM      30.33F
$$

OHZ042-051>053-060>062-070>072-077>081-051900-
  SOUTHWEST OHIO

CITY           SKY/WX    TMP DP  RH WIND       PRES   REMARKS
CINC-COVINGTON FAIR      40  19  43 S7        30.38F
CINC-LUNKEN    FAIR      40  20  44 SW8       30.41F
HAMILTON       FAIR      40  18  41 S6        30.39F
DAYTON         FAIR      38  18  44 SW10      30.36F
WRIGHT-PAT AFB FAIR      38  14  36 S7        30.36F
DAYTON GENERAL FAIR      38  18  44 S9        30.36F
WILMINGTON     FAIR      36  21  54 S8        30.37F
$$

OHZ036-037-039>041-045>050-054>059-063>069-073>076-082>088-051900-
  CENTRAL AND SOUTHEAST OHIO

CITY           SKY/WX    TMP DP  RH WIND       PRES   REMARKS
COLUMBUS       FAIR      35  17  47 SW8       30.38F WCI  29
OSU AIRPORT    FAIR      36  17  46 SW8       30.37F
BOLTON FIELD   SUNNY     36  19  51 W8        30.39F
RICKENBACK AFB FAIR      35  20  55 S7        30.39F WCI  29
NEWARK         FAIR      35  20  54 VRB6      30.38F
MARION         FAIR      35  18  49 S8        30.36F WCI  29
LANCASTER      FAIR      36  20  52 VRB3      30.39F
ZANESVILLE     FAIR      36  18  48 VRB5      30.38F
NEW PHILLY     FAIR      34  18  52 CALM      30.38F
$$




USA.gov is the U.S. government's official web portal to all federal, state and local government web resources and services.